User: anonymous   Login
Location: Fort Wayne
(41.1310°N, 85.1290°W)
Time: 19:16:59
(UTC-04:00)
Language:

Cosmos 1953 - Orbit

View from above orbital plane
View from above orbital plane
View from above satellite
View from above satellite

Ground track
Ground track

The orbit data is extracted from the following two-line orbital elements,

1 19210U 88050A   15186.56306971  .00002016  00000-0  14373-3 0  9992
2 19210 082.5170 003.6902 0014165 162.7257 197.4455 15.03985387470673
Epoch (UTC): 05 July 2015 13:30:49
Eccentricity: 0.0014165
inclination: 82.5170°
perigee height: 545 km
apogee height: 564 km
right ascension of ascending node: 3.6902°
argument of perigee: 162.7257°
revolutions per day: 15.03985387
mean anomaly at epoch: 197.4455°
orbit number at epoch: 47067

The dashed part of the orbit path shows where the satellite is in the earth's shadow,  

DLR